STARLINK-3859, 52470

Orbit data source: Space-Track

STARLINK-3859, 52470 is a payload satellite owned by SpaceX/Seattle (US) in LEO that was launched on Fri, 06 May 2022 UTC via an FALCON 9 launch vehicle from the Air Force Eastern Test Range (AFETR). Payload-class satellites include a variety of spacecraft equipped with specific instruments for various scientific and technological missions. These include communications satellites like Starlink; space stations such as the ISS; scientific satellites like the Hubble; Earth observation satellites from companies like Planet Labs, Umbra, and HawkEye 360; GPS; miniature CubeSats for education and research; and military/defense satellites.

Loading next visibility...
Identifier
52470, 2022-049V
Orbit
LEO
Country
Flag of USUS
Related business
Manufacturer
SpaceX/Seattle
Mission
Operational Commercial Communications
Bus & Motor
STARLINK, Unknown motor
Mass
297 kg wet, ~220 kg dry
Launch date (UTC)
2022-05-06 (4 years ago)
Launch vehicle
FALCON 9
Launch site
Air Force Eastern Test Range (AFETR)
Object type
Payload
Rocket body
Debris
Shape & HBR
Box + 1 Pan, 10.1 m
Radar Cross Section
13.562 m², Large (>1 m²)

Expand to show TLE details & history
Last TLE update: 1 day ago

TLE from 1 day ago
0 STARLINK-3859
1 52470U 22049V   26235.44432656  .00000137  00000-0  15178-4 0  9994
2 52470  53.1625  24.5215 0001195  93.7236 266.3903 15.34389282237508
Epoch: 2026-08-23T10:39Z
TLE epoch observation values (Epoch: 2026-08-23T10:39:49.814Z)
Latitude
-0.00006°
Longitude
-107.1764°
Altitude
463.688 km
Speed
7.636 km/s
True Right ascension
01h 38m 05s
True Declination
0° 00' 00"
Sunlit
Object was in full shadow at epoch
Visualization orbit readout
Latitude
Unknown
Longitude
Unknown
Altitude
Unknown
Speed
Unknown
Apparent Right ascension
Unknown
Apparent Declination
Unknown
Sunlit
N/A
Visualization observer readout
Local Sidereal Time
05:41:09
Azimuth
Unknown
Elevation
Unknown
Doppler factor
Unknown
Orbital elements
Apogee altitude
463.809 km
Perigee altitude
462.174 km
Semi-major axis
6,841.129 km
Eccentricity
0.00012
Inclination
53.1625°
RAAN
24.5215°
Arg. of periapsis
93.7236°
True anomaly
266.37663°
Mean anomaly
266.3903°
Eccentric anomaly
266.38347°
Mean motion
3.83576 °/min
Orbital period
93.85 mins
BSTAR
0.000015178
Loading maneuver chart data...
Computing Atmospheric mass density...
Loading historical data...
Loading historical data...
Loading historical data...
Loading historical data...
Loading historical data...
Loading historical data...
Loading historical data...

Documentation

Showing up to 5 results
|